QPF
0.09 0.07 0.08 0.10 0.13 0.17 0.20 0.22 0.25 0.26 0.25 0.22 0.16 0.11 0.09 0.08 0.06 0.04 0.04 0.09 0.11 0.11 0.14 0.14 0.11 0.08 0.06 0.03 0.02 0.03 0.04 0.04 0.03 0.01 0.00 0.00 0.00 0.00 0.00 0.00 0.00 0.00 0.00
0.08 0.07 0.06 0.07 0.08 0.11 0.15 0.21 0.27 0.31 0.34 0.33 0.28 0.23 0.17 0.14 0.13 0.12 0.11 0.14 0.21 0.19 0.17 0.17 0.15 0.12 0.10 0.06 0.04 0.03 0.03 0.05 0.04 0.03 0.02 0.01 0.01 0.01 0.00 0.01 0.01 0.00 0.00
0.06 0.04 0.04 0.05 0.06 0.08 0.10 0.14 0.22 0.34 0.44 0.43 0.37 0.34 0.30 0.24 0.20 0.19 0.21 0.23 0.20 0.22 0.22 0.17 0.13 0.12 0.11 0.07 0.04 0.03 0.02 0.03 0.04 0.03 0.02 0.01 0.01 0.02 0.01 0.00 0.00 0.00 0.00
0.05 0.05 0.05 0.05 0.06 0.06 0.07 0.09 0.14 0.20 0.36 0.47 0.46 0.43 0.39 0.35 0.29 0.27 0.30 0.29 0.26 0.17 0.16 0.18 0.15 0.12 0.10 0.08 0.05 0.04 0.02 0.02 0.01 0.02 0.02 0.02 0.02 0.02 0.02 0.01 0.01 0.00 0.00
0.02 0.03 0.03 0.03 0.03 0.05 0.06 0.06 0.09 0.15 0.23 0.32 0.40 0.39 0.36 0.34 0.30 0.29 0.30 0.26 0.25 0.23 0.16 0.16 0.19 0.15 0.12 0.09 0.10 0.10 0.06 0.04 0.02 0.01 0.01 0.02 0.02 0.02 0.02 0.02 0.01 0.01 0.00
0.01 0.01 0.01 0.02 0.02 0.03 0.03 0.05 0.07 0.10 0.18 0.24 0.29 0.29 0.25 0.23 0.26 0.26 0.21 0.20 0.19 0.19 0.21 0.17 0.16 0.13 0.13 0.13 0.14 0.13 0.10 0.08 0.05 0.02 0.02 0.02 0.03 0.02 0.01 0.01 0.01 0.01 0.01
0.00 0.00 0.00 0.00 0.01 0.02 0.03 0.04 0.07 0.12 0.15 0.19 0.24 0.24 0.22 0.21 0.20 0.17 0.14 0.14 0.12 0.13 0.19 0.18 0.16 0.12 0.08 0.08 0.09 0.11 0.12 0.11 0.08 0.05 0.04 0.04 0.04 0.03 0.02 0.01 0.01 0.01 0.01
0.00 0.00 0.00 0.00 0.00 0.00 0.01 0.03 0.06 0.09 0.10 0.14 0.20 0.23 0.24 0.22 0.19 0.12 0.11 0.10 0.08 0.11 0.15 0.16 0.18 0.16 0.13 0.08 0.04 0.06 0.08 0.09 0.09 0.07 0.06 0.05 0.03 0.02 0.01 0.01 0.01 0.01 0.01
0.00 0.00 0.00 0.00 0.00 0.00 0.01 0.02 0.03 0.05 0.06 0.11 0.20 0.28 0.25 0.20 0.17 0.15 0.13 0.10 0.09 0.11 0.12 0.16 0.16 0.15 0.14 0.10 0.05 0.04 0.07 0.06 0.07 0.08 0.07 0.05 0.03 0.02 0.02 0.01 0.01 0.01 0.01
0.00 0.00 0.00 0.00 0.00 0.00 0.01 0.03 0.04 0.06 0.07 0.09 0.13 0.19 0.22 0.21 0.18 0.14 0.14 0.14 0.12 0.12 0.15 0.17 0.18 0.15 0.12 0.08 0.06 0.05 0.04 0.04 0.05 0.07 0.09 0.07 0.04 0.03 0.02 0.02 0.03 0.02 0.01
0.00 0.00 0.00 0.00 0.01 0.01 0.01 0.02 0.03 0.05 0.10 0.14 0.14 0.16 0.17 0.17 0.15 0.13 0.13 0.15 0.13 0.09 0.10 0.15 0.16 0.15 0.11 0.08 0.07 0.05 0.04 0.03 0.03 0.04 0.07 0.07 0.05 0.03 0.03 0.03 0.06 0.07 0.05
0.00 0.00 0.00 0.00 0.00 0.00 0.00 0.01 0.01 0.02 0.05 0.11 0.13 0.15 0.18 0.18 0.15 0.12 0.12 0.12 0.11 0.09 0.08 0.10 0.09 0.09 0.09 0.07 0.04 0.03 0.03 0.02 0.02 0.02 0.03 0.04 0.05 0.04 0.04 0.05 0.08 0.11 0.10
0.00 0.00 0.00 0.00 0.00 0.00 0.00 0.00 0.01 0.02 0.03 0.05 0.06 0.08 0.12 0.15 0.17 0.16 0.13 0.12 0.12 0.11 0.10 0.09 0.07 0.05 0.05 0.05 0.03 0.03 0.03 0.02 0.02 0.02 0.02 0.02 0.03 0.03 0.03 0.04 0.06 0.08 0.09
0.00 0.00 0.00 0.00 0.00 0.00 0.00 0.00 0.00 0.00 0.01 0.03 0.05 0.07 0.08 0.09 0.13 0.17 0.17 0.16 0.15 0.13 0.13 0.10 0.08 0.05 0.04 0.02 0.02 0.02 0.01 0.02 0.02 0.01 0.01 0.01 0.02 0.02 0.02 0.02 0.02 0.03 0.04
0.00 0.00 0.00 0.00 0.00 0.00 0.00 0.00 0.00 0.00 0.00 0.00 0.01 0.04 0.07 0.07 0.08 0.13 0.17 0.19 0.21 0.18 0.14 0.13 0.11 0.08 0.04 0.03 0.02 0.01 0.01 0.01 0.01 0.01 0.01 0.01 0.01 0.01 0.01 0.01 0.02 0.02 0.02
0.00 0.00 0.00 0.00 0.00 0.00 0.00 0.00 0.00 0.00 0.00 0.00 0.00 0.01 0.03 0.05 0.06 0.09 0.14 0.17 0.20 0.22 0.18 0.14 0.14 0.13 0.08 0.04 0.02 0.01 0.01 0.01 0.01 0.00 0.00 0.00 0.01 0.01 0.01 0.01 0.01 0.01 0.02
0.00 0.00 0.00 0.00 0.00 0.00 0.00 0.00 0.00 0.00 0.00 0.00 0.00 0.00 0.01 0.03 0.05 0.07 0.12 0.16 0.17 0.21 0.20 0.20 0.21 0.21 0.15 0.07 0.04 0.02 0.01 0.01 0.00 0.00 0.00 0.00 0.00 0.01 0.01 0.01 0.01 0.01 0.01
0.00 0.00 0.00 0.00 0.00 0.00 0.00 0.00 0.00 0.00 0.01 0.00 0.01 0.01 0.01 0.01 0.03 0.05 0.09 0.13 0.15 0.19 0.22 0.26 0.29 0.25 0.19 0.12 0.07 0.04 0.01 0.00 0.00 0.00 0.00 0.00 0.00 0.00 0.01 0.01 0.01 0.01 0.01
0.00 0.00 0.00 0.00 0.00 0.00 0.00 0.00 0.00 0.00 0.01 0.00 0.00 0.01 0.01 0.01 0.02 0.03 0.05 0.09 0.12 0.16 0.21 0.28 0.36 0.34 0.27 0.18 0.10 0.06 0.03 0.01 0.00 0.00 0.01 0.01 0.00 0.00 0.00 0.01 0.01 0.01 0.01
0.00 0.00 0.00 0.00 0.00 0.00 0.00 0.00 0.01 0.01 0.01 0.01 0.00 0.00 0.00 0.01 0.01 0.02 0.03 0.06 0.10 0.14 0.20 0.29 0.37 0.42 0.36 0.24 0.14 0.08 0.04 0.02 0.01 0.00 0.01 0.01 0.01 0.01 0.01 0.01 0.01 0.01 0.01
0.00 0.00 0.00 0.00 0.00 0.00 0.00 0.00 0.01 0.01 0.01 0.01 0.01 0.01 0.00 0.01 0.01 0.02 0.02 0.03 0.08 0.12 0.16 0.24 0.34 0.45 0.45 0.29 0.16 0.10 0.06 0.03 0.01 0.01 0.00 0.01 0.00 0.00 0.00 0.01 0.01 0.01 0.01
0.00 0.00 0.00 0.00 0.00 0.00 0.00 0.00 0.01 0.01 0.02 0.02 0.01 0.01 0.01 0.01 0.01 0.02 0.02 0.02 0.04 0.09 0.14 0.19 0.26 0.35 0.44 0.36 0.20 0.12 0.08 0.05 0.02 0.01 0.00 0.01 0.00 0.00 0.00 0.00 0.01 0.01 0.00
0.00 0.00 0.00 0.00 0.00 0.00 0.00 0.01 0.01 0.02 0.02 0.02 0.02 0.02 0.01 0.01 0.01 0.01 0.02 0.02 0.03 0.05 0.11 0.17 0.22 0.27 0.37 0.42 0.31 0.17 0.09 0.06 0.03 0.01 0.00 0.01 0.01 0.00 0.00 0.01 0.01 0.01 0.00
0.00 0.00 0.00 0.00 0.00 0.00 0.00 0.00 0.01 0.01 0.02 0.02 0.02 0.02 0.01 0.02 0.02 0.03 0.02 0.02 0.02 0.03 0.05 0.11 0.19 0.25 0.32 0.44 0.42 0.30 0.17 0.08 0.05 0.03 0.01 0.00 0.01 0.00 0.00 0.00 0.01 0.01 0.00
0.00 0.00 0.00 0.01 0.01 0.01 0.01 0.00 0.01 0.01 0.01 0.02 0.03 0.02 0.02 0.02 0.02 0.03 0.03 0.03 0.02 0.03 0.04 0.07 0.16 0.28 0.34 0.39 0.49 0.44 0.28 0.13 0.06 0.04 0.02 0.00 0.00 0.00 0.00 0.00 0.00 0.00 0.00
0.01 0.00 0.01 0.01 0.01 0.01 0.01 0.00 0.01 0.01 0.02 0.02 0.03 0.03 0.03 0.03 0.03 0.03 0.04 0.04 0.03 0.03 0.04 0.05 0.11 0.22 0.33 0.36 0.40 0.42 0.33 0.19 0.09 0.05 0.02 0.01 0.00 0.00 0.00 0.00 0.00 0.00 0.00
MSLP
1014.43 1014.39 1014.30 1014.20 1014.12 1014.07 1014.04 1014.04 1014.02 1013.99 1013.93 1013.84 1013.76 1013.70 1013.69 1013.73 1013.83 1013.97 1014.14 1014.30 1014.43 1014.55 1014.65 1014.76 1014.91 1015.12 1015.41 1015.77 1016.20 1016.66 1017.13 1017.59 1018.01 1018.40 1018.76 1019.10 1019.44 1019.77 1020.10 1020.42 1020.72 1020.99 1021.23
1014.32 1014.27 1014.18 1014.10 1014.04 1014.00 1013.97 1013.93 1013.86 1013.75 1013.59 1013.40 1013.21 1013.06 1012.97 1012.96 1013.03 1013.16 1013.34 1013.53 1013.71 1013.88 1014.04 1014.20 1014.39 1014.64 1014.94 1015.31 1015.73 1016.18 1016.65 1017.10 1017.54 1017.97 1018.38 1018.78 1019.18 1019.58 1019.97 1020.34 1020.68 1020.97 1021.23
1014.17 1014.11 1014.05 1014.01 1013.99 1013.99 1013.97 1013.91 1013.79 1013.59 1013.32 1013.02 1012.72 1012.46 1012.28 1012.20 1012.22 1012.34 1012.52 1012.73 1012.94 1013.16 1013.37 1013.60 1013.84 1014.12 1014.45 1014.83 1015.25 1015.69 1016.14 1016.59 1017.04 1017.48 1017.93 1018.38 1018.84 1019.30 1019.75 1020.17 1020.55 1020.88 1021.15
1014.00 1013.94 1013.91 1013.92 1013.96 1014.00 1014.00 1013.93 1013.77 1013.49 1013.13 1012.72 1012.30 1011.94 1011.67 1011.52 1011.48 1011.56 1011.72 1011.94 1012.18 1012.43 1012.68 1012.95 1013.24 1013.56 1013.92 1014.31 1014.73 1015.17 1015.61 1016.05 1016.50 1016.95 1017.42 1017.90 1018.40 1018.91 1019.41 1019.88 1020.30 1020.66 1020.97
1013.81 1013.74 1013.75 1013.81 1013.91 1014.00 1014.03 1013.96 1013.76 1013.43 1012.98 1012.48 1011.98 1011.53 1011.18 1010.96 1010.87 1010.90 1011.03 1011.22 1011.46 1011.72 1011.99 1012.29 1012.61 1012.96 1013.34 1013.75 1014.18 1014.61 1015.05 1015.49 1015.93 1016.38 1016.86 1017.36 1017.89 1018.43 1018.96 1019.46 1019.92 1020.32 1020.66
1013.62 1013.54 1013.57 1013.68 1013.82 1013.96 1014.01 1013.95 1013.73 1013.36 1012.87 1012.32 1011.76 1011.25 1010.85 1010.57 1010.43 1010.42 1010.50 1010.65 1010.84 1011.08 1011.34 1011.63 1011.95 1012.31 1012.71 1013.13 1013.57 1014.01 1014.45 1014.88 1015.33 1015.78 1016.27 1016.78 1017.31 1017.87 1018.42 1018.94 1019.42 1019.85 1020.22
1013.44 1013.34 1013.37 1013.50 1013.67 1013.84 1013.91 1013.86 1013.64 1013.27 1012.77 1012.20 1011.64 1011.12 1010.70 1010.40 1010.22 1010.15 1010.17 1010.25 1010.38 1010.54 1010.75 1011.00 1011.30 1011.64 1012.03 1012.45 1012.90 1013.34 1013.79 1014.24 1014.69 1015.16 1015.65 1016.17 1016.71 1017.27 1017.82 1018.36 1018.86 1019.31 1019.70
1013.28 1013.14 1013.15 1013.28 1013.47 1013.64 1013.72 1013.68 1013.48 1013.13 1012.67 1012.14 1011.61 1011.13 1010.73 1010.42 1010.22 1010.10 1010.05 1010.04 1010.07 1010.14 1010.25 1010.42 1010.66 1010.96 1011.32 1011.73 1012.17 1012.63 1013.09 1013.56 1014.03 1014.51 1015.02 1015.54 1016.09 1016.66 1017.22 1017.76 1018.26 1018.72 1019.13
1013.13 1012.95 1012.94 1013.04 1013.21 1013.37 1013.46 1013.42 1013.25 1012.95 1012.55 1012.10 1011.65 1011.24 1010.90 1010.62 1010.41 1010.25 1010.11 1010.00 1009.92 1009.86 1009.85 1009.92 1010.06 1010.29 1010.60 1010.98 1011.41 1011.87 1012.35 1012.84 1013.33 1013.84 1014.37 1014.92 1015.48 1016.05 1016.61 1017.15 1017.66 1018.12 1018.54
1013.00 1012.79 1012.74 1012.80 1012.93 1013.06 1013.13 1013.11 1012.97 1012.73 1012.42 1012.07 1011.73 1011.42 1011.14 1010.91 1010.70 1010.50 1010.30 1010.09 1009.87 1009.69 1009.55 1009.49 1009.53 1009.68 1009.92 1010.26 1010.66 1011.11 1011.60 1012.10 1012.62 1013.16 1013.72 1014.29 1014.88 1015.46 1016.02 1016.56 1017.06 1017.52 1017.95
1012.89 1012.66 1012.57 1012.59 1012.66 1012.75 1012.79 1012.76 1012.66 1012.48 1012.25 1012.01 1011.78 1011.57 1011.38 1011.20 1011.00 1010.78 1010.51 1010.21 1009.89 1009.59 1009.33 1009.16 1009.09 1009.15 1009.32 1009.60 1009.97 1010.40 1010.87 1011.38 1011.92 1012.48 1013.07 1013.66 1014.27 1014.86 1015.44 1015.98 1016.47 1016.93 1017.34
1012.80 1012.56 1012.44 1012.40 1012.42 1012.44 1012.45 1012.40 1012.31 1012.18 1012.03 1011.89 1011.76 1011.64 1011.53 1011.40 1011.22 1010.98 1010.67 1010.31 1009.91 1009.52 1009.17 1008.91 1008.77 1008.75 1008.85 1009.08 1009.39 1009.78 1010.24 1010.73 1011.27 1011.84 1012.43 1013.04 1013.66 1014.26 1014.84 1015.37 1015.87 1016.31 1016.72
1012.73 1012.49 1012.34 1012.25 1012.20 1012.16 1012.11 1012.03 1011.94 1011.84 1011.75 1011.67 1011.62 1011.58 1011.52 1011.43 1011.28 1011.04 1010.71 1010.32 1009.89 1009.46 1009.07 1008.77 1008.57 1008.50 1008.56 1008.73 1008.99 1009.33 1009.74 1010.20 1010.71 1011.26 1011.84 1012.44 1013.05 1013.65 1014.22 1014.75 1015.23 1015.67 1016.07
1012.67 1012.43 1012.26 1012.12 1012.00 1011.89 1011.78 1011.66 1011.55 1011.45 1011.38 1011.35 1011.34 1011.35 1011.33 1011.27 1011.14 1010.91 1010.60 1010.22 1009.80 1009.38 1009.01 1008.71 1008.51 1008.43 1008.45 1008.58 1008.80 1009.08 1009.43 1009.84 1010.29 1010.79 1011.34 1011.91 1012.49 1013.06 1013.61 1014.12 1014.59 1015.01 1015.41
1012.58 1012.35 1012.15 1011.97 1011.79 1011.61 1011.44 1011.27 1011.12 1011.01 1010.94 1010.92 1010.93 1010.95 1010.96 1010.92 1010.81 1010.62 1010.35 1010.01 1009.65 1009.29 1008.98 1008.73 1008.57 1008.51 1008.53 1008.64 1008.81 1009.05 1009.33 1009.67 1010.05 1010.49 1010.97 1011.48 1012.00 1012.53 1013.04 1013.52 1013.96 1014.38 1014.77
1012.43 1012.21 1011.99 1011.77 1011.54 1011.30 1011.07 1010.85 1010.67 1010.53 1010.44 1010.41 1010.41 1010.44 1010.45 1010.42 1010.34 1010.19 1009.97 1009.71 1009.44 1009.18 1008.96 1008.80 1008.71 1008.70 1008.75 1008.86 1009.01 1009.20 1009.42 1009.69 1010.00 1010.36 1010.76 1011.20 1011.66 1012.12 1012.58 1013.01 1013.42 1013.82 1014.21
1012.18 1011.96 1011.73 1011.48 1011.21 1010.94 1010.66 1010.41 1010.18 1010.01 1009.90 1009.85 1009.83 1009.84 1009.85 1009.83 1009.77 1009.66 1009.51 1009.34 1009.17 1009.02 1008.92 1008.86 1008.87 1008.93 1009.03 1009.15 1009.30 1009.47 1009.66 1009.88 1010.13 1010.42 1010.75 1011.12 1011.50 1011.90 1012.29 1012.67 1013.04 1013.41 1013.79
1011.81 1011.59 1011.35 1011.08 1010.80 1010.50 1010.20 1009.92 1009.68 1009.48 1009.34 1009.26 1009.22 1009.21 1009.21 1009.20 1009.16 1009.10 1009.01 1008.93 1008.85 1008.81 1008.82 1008.87 1008.96 1009.10 1009.26 1009.42 1009.60 1009.77 1009.95 1010.15 1010.37 1010.63 1010.91 1011.22 1011.55 1011.89 1012.22 1012.55 1012.88 1013.21 1013.58
1011.32 1011.10 1010.86 1010.59 1010.30 1010.00 1009.69 1009.40 1009.14 1008.93 1008.78 1008.67 1008.61 1008.58 1008.57 1008.56 1008.54 1008.51 1008.48 1008.47 1008.48 1008.52 1008.61 1008.75 1008.93 1009.13 1009.35 1009.57 1009.78 1010.00 1010.21 1010.43 1010.67 1010.93 1011.21 1011.50 1011.80 1012.10 1012.39 1012.67 1012.96 1013.26 1013.59
1010.73 1010.50 1010.26 1010.01 1009.73 1009.43 1009.13 1008.85 1008.59 1008.37 1008.20 1008.07 1008.00 1007.95 1007.93 1007.92 1007.92 1007.92 1007.93 1007.96 1008.02 1008.13 1008.28 1008.47 1008.70 1008.96 1009.23 1009.51 1009.79 1010.06 1010.34 1010.63 1010.93 1011.25 1011.57 1011.89 1012.20 1012.50 1012.77 1013.03 1013.28 1013.55 1013.85
1010.06 1009.84 1009.61 1009.36 1009.10 1008.82 1008.53 1008.25 1007.99 1007.77 1007.59 1007.45 1007.36 1007.30 1007.28 1007.27 1007.27 1007.29 1007.33 1007.39 1007.48 1007.62 1007.79 1008.01 1008.27 1008.56 1008.88 1009.21 1009.56 1009.92 1010.29 1010.69 1011.09 1011.51 1011.92 1012.32 1012.69 1013.02 1013.31 1013.57 1013.81 1014.05 1014.31
1009.37 1009.15 1008.92 1008.69 1008.44 1008.17 1007.89 1007.62 1007.35 1007.12 1006.92 1006.77 1006.67 1006.60 1006.57 1006.57 1006.59 1006.62 1006.67 1006.75 1006.86 1007.00 1007.18 1007.40 1007.67 1007.97 1008.31 1008.69 1009.11 1009.56 1010.05 1010.57 1011.11 1011.66 1012.20 1012.71 1013.17 1013.58 1013.92 1014.21 1014.46 1014.69 1014.93
1008.70 1008.46 1008.24 1008.00 1007.76 1007.49 1007.22 1006.93 1006.66 1006.41 1006.19 1006.03 1005.91 1005.84 1005.81 1005.81 1005.85 1005.90 1005.97 1006.07 1006.18 1006.32 1006.49 1006.70 1006.95 1007.26 1007.61 1008.02 1008.50 1009.04 1009.63 1010.28 1010.96 1011.65 1012.34 1012.98 1013.57 1014.08 1014.51 1014.85 1015.13 1015.37 1015.61
1008.05 1007.80 1007.56 1007.32 1007.07 1006.80 1006.50 1006.20 1005.91 1005.63 1005.40 1005.21 1005.09 1005.01 1004.99 1005.01 1005.07 1005.15 1005.25 1005.36 1005.48 1005.62 1005.79 1005.98 1006.22 1006.51 1006.86 1007.30 1007.81 1008.41 1009.09 1009.85 1010.65 1011.48 1012.31 1013.10 1013.81 1014.44 1014.97 1015.40 1015.74 1016.02 1016.26
1007.44 1007.16 1006.90 1006.64 1006.37 1006.08 1005.77 1005.45 1005.13 1004.83 1004.58 1004.38 1004.24 1004.17 1004.16 1004.21 1004.29 1004.41 1004.54 1004.69 1004.83 1004.98 1005.15 1005.33 1005.56 1005.83 1006.18 1006.61 1007.14 1007.77 1008.51 1009.34 1010.24 1011.17 1012.11 1013.02 1013.85 1014.60 1015.24 1015.76 1016.18 1016.52 1016.81
1006.84 1006.53 1006.25 1005.96 1005.67 1005.36 1005.03 1004.70 1004.36 1004.05 1003.78 1003.57 1003.44 1003.37 1003.38 1003.46 1003.58 1003.74 1003.92 1004.10 1004.28 1004.46 1004.63 1004.82 1005.03 1005.29 1005.62 1006.04 1006.56 1007.20 1007.95 1008.81 1009.76 1010.75 1011.77 1012.76 1013.69 1014.53 1015.27 1015.89 1016.40 1016.83 1017.18
Thickness
5746 5744 5741 5741 5741 5740 5739 5738 5736 5734 5732 5730 5728 5728 5729 5729 5728 5729 5731 5733 5736 5736 5736 5736 5735 5735 5734 5734 5733 5733 5732 5730 5729 5729 5728 5727 5726 5725 5724 5724 5723 5722 5721
5739 5737 5736 5734 5734 5733 5733 5732 5731 5730 5729 5727 5726 5726 5726 5726 5726 5726 5728 5730 5733 5734 5735 5735 5734 5733 5733 5732 5732 5732 5731 5730 5729 5728 5727 5726 5725 5724 5724 5723 5722 5722 5721
5732 5730 5728 5727 5726 5726 5725 5725 5725 5725 5724 5724 5724 5724 5724 5725 5725 5724 5725 5727 5730 5732 5733 5733 5733 5732 5732 5731 5731 5731 5730 5730 5728 5727 5726 5725 5724 5724 5723 5722 5722 5721 5721
5724 5722 5720 5719 5719 5718 5718 5717 5717 5717 5718 5719 5719 5720 5721 5722 5722 5722 5721 5724 5726 5728 5730 5732 5732 5732 5731 5731 5731 5730 5730 5729 5728 5727 5726 5725 5724 5722 5722 5721 5721 5721 5720
5715 5713 5711 5710 5711 5710 5710 5710 5710 5710 5711 5713 5714 5716 5717 5718 5718 5719 5719 5721 5723 5724 5727 5730 5731 5731 5731 5731 5731 5731 5730 5729 5728 5727 5725 5724 5723 5722 5721 5720 5720 5720 5720
5705 5704 5703 5702 5701 5701 5700 5701 5702 5704 5705 5706 5709 5712 5714 5715 5715 5716 5717 5719 5721 5723 5724 5727 5728 5729 5730 5731 5732 5731 5730 5729 5728 5727 5725 5724 5723 5722 5721 5720 5719 5719 5718
5696 5695 5694 5692 5691 5690 5691 5692 5693 5695 5697 5699 5699 5702 5707 5710 5712 5714 5715 5716 5719 5721 5723 5725 5727 5727 5730 5731 5731 5732 5731 5730 5728 5727 5726 5724 5723 5721 5720 5719 5718 5718 5717
5686 5686 5685 5683 5682 5682 5682 5682 5683 5684 5687 5690 5690 5690 5693 5699 5706 5711 5713 5714 5717 5720 5721 5724 5725 5727 5729 5730 5732 5732 5731 5730 5729 5728 5726 5725 5723 5722 5720 5719 5718 5717 5717
5677 5676 5676 5675 5675 5674 5673 5673 5674 5675 5676 5680 5682 5682 5683 5686 5695 5703 5708 5712 5715 5717 5720 5722 5724 5726 5728 5729 5731 5732 5732 5731 5730 5729 5727 5725 5724 5722 5721 5720 5718 5717 5717
5668 5668 5668 5668 5667 5666 5665 5665 5666 5666 5667 5668 5672 5676 5679 5682 5682 5689 5700 5706 5711 5713 5717 5720 5723 5725 5727 5728 5730 5732 5732 5732 5731 5729 5728 5726 5725 5723 5722 5720 5719 5717 5717
5658 5658 5658 5658 5657 5657 5656 5657 5657 5657 5658 5659 5662 5665 5669 5674 5677 5679 5685 5694 5702 5709 5714 5717 5720 5723 5726 5727 5729 5731 5732 5732 5731 5730 5729 5727 5726 5724 5723 5721 5720 5718 5717
5648 5648 5648 5648 5648 5647 5647 5648 5648 5649 5650 5652 5654 5656 5659 5663 5668 5672 5677 5683 5690 5700 5708 5713 5717 5721 5724 5726 5728 5730 5731 5731 5731 5730 5729 5728 5726 5725 5724 5722 5720 5719 5718
5637 5637 5638 5637 5637 5637 5638 5638 5639 5640 5642 5644 5646 5648 5652 5656 5661 5665 5668 5673 5680 5690 5699 5706 5713 5717 5720 5723 5726 5728 5729 5730 5730 5730 5729 5728 5727 5726 5725 5723 5722 5721 5719
5629 5629 5628 5628 5628 5628 5629 5629 5630 5631 5634 5636 5638 5641 5643 5648 5652 5656 5661 5664 5669 5677 5687 5696 5705 5711 5716 5719 5723 5725 5726 5727 5728 5728 5728 5728 5727 5727 5726 5725 5723 5722 5720
5623 5622 5620 5619 5619 5619 5619 5620 5620 5622 5624 5627 5629 5632 5635 5639 5644 5648 5653 5657 5660 5665 5674 5686 5695 5703 5708 5712 5716 5719 5722 5723 5725 5726 5727 5727 5727 5726 5726 5725 5724 5722 5721
5614 5613 5611 5610 5609 5609 5609 5610 5611 5613 5614 5617 5620 5623 5627 5631 5635 5640 5645 5650 5654 5659 5665 5677 5686 5694 5699 5704 5707 5711 5714 5717 5719 5722 5723 5725 5725 5725 5725 5724 5724 5722 5721
5606 5604 5602 5601 5600 5599 5599 5599 5600 5602 5604 5607 5610 5613 5617 5621 5626 5631 5636 5641 5647 5652 5658 5668 5678 5685 5689 5693 5696 5701 5705 5708 5712 5716 5718 5721 5722 5723 5723 5723 5722 5721 5719
5598 5596 5594 5592 5591 5590 5590 5589 5590 5592 5593 5595 5599 5602 5607 5612 5616 5621 5626 5632 5638 5645 5650 5657 5666 5673 5678 5683 5687 5691 5694 5699 5703 5707 5711 5715 5717 5719 5719 5719 5719 5718 5717
5591 5588 5585 5583 5581 5581 5580 5579 5580 5581 5583 5585 5588 5591 5596 5599 5604 5610 5616 5622 5629 5637 5643 5649 5656 5664 5668 5672 5675 5679 5683 5689 5694 5698 5703 5707 5710 5712 5714 5714 5714 5714 5713
5584 5580 5577 5575 5573 5572 5571 5570 5570 5570 5572 5574 5577 5580 5584 5588 5593 5599 5606 5612 5619 5626 5633 5641 5648 5653 5658 5663 5667 5669 5672 5678 5684 5689 5693 5697 5700 5703 5706 5707 5707 5708 5708
5578 5574 5570 5567 5565 5563 5563 5561 5560 5560 5560 5561 5564 5568 5572 5577 5583 5588 5595 5602 5608 5615 5623 5631 5638 5644 5650 5654 5659 5663 5665 5668 5673 5679 5683 5687 5691 5694 5696 5698 5699 5700 5701
5572 5568 5564 5561 5558 5558 5557 5554 5551 5549 5548 5548 5550 5554 5558 5564 5570 5577 5585 5592 5599 5606 5613 5621 5629 5636 5644 5650 5654 5657 5659 5662 5665 5669 5675 5676 5680 5683 5686 5689 5691 5693 5693
5566 5562 5559 5555 5553 5551 5548 5545 5542 5539 5537 5537 5538 5540 5546 5553 5558 5563 5571 5580 5588 5597 5606 5613 5621 5630 5637 5644 5648 5650 5653 5657 5660 5664 5666 5666 5668 5671 5674 5678 5681 5684 5685
5561 5557 5554 5550 5547 5545 5542 5538 5535 5531 5528 5527 5528 5529 5533 5538 5545 5550 5557 5566 5575 5585 5596 5606 5615 5623 5631 5638 5643 5648 5649 5648 5650 5653 5659 5657 5657 5659 5663 5667 5671 5674 5675
5557 5553 5549 5546 5542 5539 5536 5532 5528 5523 5521 5520 5520 5521 5523 5528 5534 5539 5545 5554 5563 5572 5583 5594 5604 5613 5621 5629 5634 5636 5638 5641 5642 5645 5650 5652 5649 5649 5652 5655 5659 5663 5666
5553 5549 5545 5541 5536 5533 5530 5527 5522 5517 5514 5513 5512 5513 5516 5519 5524 5529 5535 5543 5552 5562 5571 5581 5591 5602 5611 5619 5627 5634 5639 5641 5642 5642 5645 5646 5645 5645 5643 5644 5648 5652 5656